Time,TemperatureF,DewpointF,PressureIn,WindDirection,WindDirectionDegrees,WindSpeedMPH,WindSpeedGustMPH,Humidity,HourlyPrecipIn,Conditions,Clouds,dailyrainin,SolarRadiationWatts/m^2,SoftwareType,DateUTC
2013-06-07 00:12:00,62.0,25.0,-100.00,North,9,5.0,12.0,24,0.00,,,0.00,0.000000,,2013-06-07 06:12:00,
2013-06-07 00:22:00,62.0,25.0,-100.00,North,9,5.0,12.0,24,0.00,,,0.00,0.000000,,2013-06-07 06:22:00,
2013-06-07 00:32:00,62.0,25.0,-100.00,North,9,5.0,12.0,24,0.00,,,0.00,0.000000,,2013-06-07 06:32:00,
2013-06-07 00:42:00,62.0,25.0,-100.00,North,9,5.0,12.0,24,0.00,,,0.00,0.000000,,2013-06-07 06:42:00,
2013-06-07 00:52:00,62.0,25.0,-100.00,North,9,5.0,12.0,24,0.00,,,0.00,0.000000,,2013-06-07 06:52:00,
2013-06-07 01:22:00,61.0,24.0,-100.00,NNW,346,5.0,12.0,24,-99.99,,,0.00,0.000000,,2013-06-07 07:22:00,
2013-06-07 01:32:00,61.0,24.0,-100.00,NNW,346,5.0,12.0,24,-99.99,,,0.00,0.000000,,2013-06-07 07:32:00,
2013-06-07 02:22:00,56.0,25.0,-100.00,NE,51,2.0,8.0,30,-99.99,,,0.00,0.000000,,2013-06-07 08:22:00,
2013-06-07 02:32:00,56.0,25.0,-100.00,NE,51,2.0,8.0,30,-99.99,,,0.00,0.000000,,2013-06-07 08:32:00,
2013-06-07 02:42:00,56.0,25.0,-100.00,NE,51,2.0,8.0,30,-99.99,,,0.00,0.000000,,2013-06-07 08:42:00,
2013-06-07 02:52:00,56.0,25.0,-100.00,NE,51,2.0,8.0,30,-99.99,,,0.00,0.000000,,2013-06-07 08:52:00,
2013-06-07 03:22:00,57.0,26.0,-100.00,NE,47,4.0,7.0,30,0.00,,,0.00,0.000000,,2013-06-07 09:22:00,
2013-06-07 03:32:00,57.0,26.0,-100.00,NE,47,4.0,7.0,30,0.00,,,0.00,0.000000,,2013-06-07 09:32:00,
2013-06-07 03:43:00,57.0,26.0,-100.00,NE,47,4.0,7.0,30,0.00,,,0.00,0.000000,,2013-06-07 09:43:00,
2013-06-07 03:53:00,57.0,26.0,-100.00,NE,47,4.0,7.0,30,0.00,,,0.00,0.000000,,2013-06-07 09:53:00,
2013-06-07 04:23:00,56.0,27.0,-100.00,NE,47,7.0,9.0,32,-99.99,,,0.00,0.000000,,2013-06-07 10:23:00,
2013-06-07 04:32:00,56.0,27.0,-100.00,NE,47,7.0,9.0,32,-99.99,,,0.00,0.000000,,2013-06-07 10:32:00,
2013-06-07 05:22:00,54.0,26.0,-100.00,NE,40,5.0,9.0,34,-99.99,,,0.00,0.000000,,2013-06-07 11:22:00,
2013-06-07 05:32:00,54.0,26.0,-100.00,NE,40,5.0,9.0,34,-99.99,,,0.00,0.000000,,2013-06-07 11:32:00,
2013-06-07 05:42:00,54.0,26.0,-100.00,NE,40,5.0,9.0,34,-99.99,,,0.00,0.000000,,2013-06-07 11:42:00,
2013-06-07 05:52:00,54.0,26.0,-100.00,NE,40,5.0,9.0,34,-99.99,,,0.00,0.000000,,2013-06-07 11:52:00,
2013-06-07 06:22:00,54.0,28.0,-100.00,NNW,337,3.0,7.0,36,-99.99,,,0.00,1.000000,,2013-06-07 12:22:00,
2013-06-07 06:32:00,54.0,28.0,-100.00,NNW,337,3.0,7.0,36,-99.99,,,0.00,1.000000,,2013-06-07 12:32:00,
2013-06-07 08:22:00,62.0,35.0,-100.00,SSE,166,2.0,5.0,37,-99.99,,,0.00,247.000000,,2013-06-07 14:22:00,
2013-06-07 09:22:00,64.0,34.0,-100.00,SSE,150,6.0,9.0,33,-99.99,,,0.00,448.000000,,2013-06-07 15:22:00,
2013-06-07 09:33:00,64.0,34.0,-100.00,SSE,150,6.0,9.0,33,-99.99,,,0.00,448.000000,,2013-06-07 15:33:00,
2013-06-07 09:43:00,64.0,34.0,-100.00,SSE,150,6.0,9.0,33,-99.99,,,0.00,448.000000,,2013-06-07 15:43:00,
2013-06-07 09:53:00,64.0,34.0,-100.00,SSE,150,6.0,9.0,33,-99.99,,,0.00,448.000000,,2013-06-07 15:53:00,
2013-06-07 10:22:00,66.0,36.0,-100.00,South,178,7.0,10.0,33,0.00,,,0.00,633.000000,,2013-06-07 16:22:00,
2013-06-07 10:33:00,66.0,36.0,-100.00,South,178,7.0,10.0,33,0.00,,,0.00,633.000000,,2013-06-07 16:33:00,
2013-06-07 10:43:00,66.0,36.0,-100.00,South,178,7.0,10.0,33,0.00,,,0.00,633.000000,,2013-06-07 16:43:00,
2013-06-07 10:52:00,66.0,36.0,-100.00,South,178,7.0,10.0,33,0.00,,,0.00,633.000000,,2013-06-07 16:52:00,
2013-06-07 11:22:00,70.0,36.0,-100.00,SW,219,5.0,10.0,29,0.00,,,0.00,825.000000,,2013-06-07 17:22:00,
2013-06-07 11:32:00,70.0,36.0,-100.00,SW,219,5.0,10.0,29,0.00,,,0.00,825.000000,,2013-06-07 17:32:00,
2013-06-07 11:42:00,70.0,36.0,-100.00,SW,219,5.0,10.0,29,0.00,,,0.00,825.000000,,2013-06-07 17:42:00,
2013-06-07 11:52:00,70.0,36.0,-100.00,SW,219,5.0,10.0,29,0.00,,,0.00,825.000000,,2013-06-07 17:52:00,
2013-06-07 12:23:00,73.0,38.0,-100.00,SSE,159,8.0,13.0,28,0.00,,,0.00,893.000000,,2013-06-07 18:23:00,
2013-06-07 12:35:00,73.0,38.0,-100.00,SSE,159,8.0,13.0,28,0.00,,,0.00,893.000000,,2013-06-07 18:35:00,
2013-06-07 12:43:00,73.0,38.0,-100.00,SSE,159,8.0,13.0,28,0.00,,,0.00,893.000000,,2013-06-07 18:43:00,
2013-06-07 12:54:00,73.0,38.0,-100.00,SSE,159,8.0,13.0,28,0.00,,,0.00,893.000000,,2013-06-07 18:54:00,
2013-06-07 13:27:00,71.0,28.0,-100.00,SW,225,11.0,20.0,20,0.00,,,0.00,779.000000,,2013-06-07 19:27:00,
2013-06-07 13:34:00,71.0,28.0,-100.00,SW,225,11.0,20.0,20,0.00,,,0.00,779.000000,,2013-06-07 19:34:00,
2013-06-07 13:44:00,71.0,28.0,-100.00,SW,225,11.0,20.0,20,0.00,,,0.00,779.000000,,2013-06-07 19:44:00,
2013-06-07 13:54:00,71.0,28.0,-100.00,SW,225,11.0,20.0,20,0.00,,,0.00,779.000000,,2013-06-07 19:54:00,
2013-06-07 14:36:00,70.0,28.0,-100.00,NW,319,9.0,24.0,21,0.00,,,0.00,436.000000,,2013-06-07 20:36:00,
2013-06-07 14:44:00,70.0,28.0,-100.00,NW,319,9.0,24.0,21,0.00,,,0.00,436.000000,,2013-06-07 20:44:00,
2013-06-07 14:53:00,70.0,28.0,-100.00,NW,319,9.0,24.0,21,0.00,,,0.00,436.000000,,2013-06-07 20:53:00,
2013-06-07 15:25:00,76.0,29.0,-100.00,WNW,287,9.0,18.0,18,0.00,,,0.00,600.000000,,2013-06-07 21:25:00,
2013-06-07 15:37:00,76.0,29.0,-100.00,WNW,287,9.0,18.0,18,0.00,,,0.00,600.000000,,2013-06-07 21:37:00,
2013-06-07 15:44:00,76.0,29.0,-100.00,WNW,287,9.0,18.0,18,0.00,,,0.00,600.000000,,2013-06-07 21:44:00,
2013-06-07 15:55:00,76.0,29.0,-100.00,WNW,287,9.0,18.0,18,0.00,,,0.00,600.000000,,2013-06-07 21:55:00,
2013-06-07 16:34:00,76.0,25.0,-100.00,WNW,300,8.0,19.0,15,0.00,,,0.00,800.000000,,2013-06-07 22:34:00,
2013-06-07 16:44:00,76.0,25.0,-100.00,WNW,300,8.0,19.0,15,0.00,,,0.00,800.000000,,2013-06-07 22:44:00,
2013-06-07 16:54:00,76.0,25.0,-100.00,WNW,300,8.0,19.0,15,0.00,,,0.00,800.000000,,2013-06-07 22:54:00,
2013-06-07 17:26:00,78.0,27.0,-100.00,WNW,300,8.0,17.0,15,0.00,,,0.00,588.000000,,2013-06-07 23:26:00,
2013-06-07 17:35:00,78.0,27.0,-100.00,WNW,300,8.0,17.0,15,0.00,,,0.00,588.000000,,2013-06-07 23:35:00,
2013-06-07 17:46:00,78.0,27.0,-100.00,WNW,300,8.0,17.0,15,0.00,,,0.00,588.000000,,2013-06-07 23:46:00,
2013-06-07 17:54:00,78.0,27.0,-100.00,WNW,300,8.0,17.0,15,0.00,,,0.00,588.000000,,2013-06-07 23:54:00,
2013-06-07 18:26:00,76.0,23.0,-100.00,WNW,301,8.0,23.0,14,0.00,,,0.00,565.000000,,2013-06-08 00:26:00,
2013-06-07 18:34:00,76.0,23.0,-100.00,WNW,301,8.0,23.0,14,0.00,,,0.00,565.000000,,2013-06-08 00:34:00,
2013-06-07 18:44:00,76.0,23.0,-100.00,WNW,301,8.0,23.0,14,0.00,,,0.00,565.000000,,2013-06-08 00:44:00,
2013-06-07 18:53:00,76.0,23.0,-100.00,WNW,301,8.0,23.0,14,0.00,,,0.00,565.000000,,2013-06-08 00:53:00,
2013-06-07 19:26:00,72.0,20.0,-100.00,WNW,295,9.0,24.0,14,0.00,,,0.00,284.000000,,2013-06-08 01:26:00,
2013-06-07 19:43:00,72.0,20.0,-100.00,WNW,295,9.0,24.0,14,0.00,,,0.00,284.000000,,2013-06-08 01:43:00,
2013-06-07 19:54:00,72.0,20.0,-100.00,WNW,295,9.0,24.0,14,0.00,,,0.00,284.000000,,2013-06-08 01:54:00,
2013-06-07 20:27:00,69.0,22.0,-100.00,NW,304,8.0,17.0,17,0.00,,,0.00,96.000000,,2013-06-08 02:27:00,
2013-06-07 20:33:00,69.0,22.0,-100.00,NW,304,8.0,17.0,17,0.00,,,0.00,96.000000,,2013-06-08 02:33:00,
2013-06-07 20:54:00,69.0,22.0,-100.00,NW,304,8.0,17.0,17,0.00,,,0.00,96.000000,,2013-06-08 02:54:00,
2013-06-07 21:25:00,63.0,24.0,-100.00,NNW,345,4.0,10.0,22,0.00,,,0.00,6.000000,,2013-06-08 03:25:00,
2013-06-07 21:35:00,63.0,24.0,-100.00,NNW,345,4.0,10.0,22,0.00,,,0.00,6.000000,,2013-06-08 03:35:00,
2013-06-07 21:48:00,63.0,24.0,-100.00,NNW,345,4.0,10.0,22,0.00,,,0.00,6.000000,,2013-06-08 03:48:00,
2013-06-07 21:54:00,63.0,24.0,-100.00,NNW,345,4.0,10.0,22,0.00,,,0.00,6.000000,,2013-06-08 03:54:00,
2013-06-07 22:23:00,62.0,24.0,-100.00,North,359,5.0,12.0,23,0.00,,,0.00,0.000000,,2013-06-08 04:23:00,
2013-06-07 22:33:00,62.0,24.0,-100.00,North,359,5.0,12.0,23,0.00,,,0.00,0.000000,,2013-06-08 04:33:00,
2013-06-07 22:42:00,62.0,24.0,-100.00,North,359,5.0,12.0,23,0.00,,,0.00,0.000000,,2013-06-08 04:42:00,
2013-06-07 22:53:00,62.0,24.0,-100.00,North,359,5.0,12.0,23,0.00,,,0.00,0.000000,,2013-06-08 04:53:00,
2013-06-07 23:22:00,61.0,24.0,-100.00,NNE,12,3.0,8.0,24,0.00,,,0.00,0.000000,,2013-06-08 05:22:00,
2013-06-07 23:32:00,61.0,24.0,-100.00,NNE,12,3.0,8.0,24,0.00,,,0.00,0.000000,,2013-06-08 05:32:00,
2013-06-07 23:42:00,61.0,24.0,-100.00,NNE,12,3.0,8.0,24,0.00,,,0.00,0.000000,,2013-06-08 05:42:00,
2013-06-07 23:52:00,61.0,24.0,-100.00,NNE,12,3.0,8.0,24,0.00,,,0.00,0.000000,,2013-06-08 05:52:00,